Puebla, Mexico

10:33 PM CST on November 23, 2017 (GMT -0600)
Hermanos Serdan International

Weather History for MMPB - August, 2013

Change the Weather History Date:

Monday, August 19, 2013

  Actual Average Record
Temperature  
Mean Temperature 62 °F -  
Max Temperature 75 °F 71 °F 80 °F (2015)
Min Temperature 50 °F 51 °F 50 °F (1999)
Degree Days  
Heating Degree Days 2    
Growing Degree Days 12 (Base 50)    
Moisture  
Dew Point 49 °F    
Average Humidity 68    
Maximum Humidity 94    
Minimum Humidity 20    
Precipitation  
Precipitation 0.08 in - - ()
Sea Level Pressure  
Sea Level Pressure 30.18 in    
Wind  
Wind Speed 4 mph ()    
Max Wind Speed 12 mph    
Max Gust Speed -    
Visibility 6.7 miles    
Events Rain    
Averages and records for this station are not official NWS values.
T = Trace of Precipitation, MM = Missing Value Source: Averaged Metar Reports

Daily Weather History Graph

Daily Weather History Graph

Search for Another Location

Airport or City:

Trip Planner

Search our weather history database for the weather conditions in past years. The results will help you decide how hot, cold, wet, or windy it might be!

Date:

Astronomy

Aug. 19, 2013 Rise Set
Actual Time 7:15 AM CDT 7:57 PM CDT
Civil Twilight 6:52 AM CDT 8:19 PM CDT
Nautical Twilight 6:25 AM CDT 8:46 PM CDT
Astronomical Twilight 5:58 AM CDT 9:13 PM CDT
Moon 6:49 PM CDT (8/19) 5:40 AM CDT (8/19)
Length of Visible Light 13h 27m
Length of Day
12h 42m
Waxing Gibbous, 97% of the Moon is Illuminated
Aug 19
Waxing Gibbous
Aug 20
Full
Aug 28
Last Quarter
Sep 5
New
Sep 12
First Quarter

Hourly Weather History & Observations

Time (CDT) Temp. Dew Point Humidity Pressure Visibility Wind Dir Wind Speed Gust Speed Precip Events Conditions
12:58 AM 61 °F 54 °F 71% 29.84 in 3 mi Calm Calm - -   Partly Cloudy
6:02 AM 50.0 °F 44.6 °F 82% 30.34 in 7.0 mi North 4.6 mph - N/A   Mostly Cloudy
6:49 AM 48.2 °F 44.6 °F 87% 30.33 in 7.0 mi NNW 8.1 mph - N/A   Scattered Clouds
6:56 AM 55 °F 52 °F 87% 29.88 in 3 mi Calm Calm - -   Scattered Clouds
7:45 AM 50.0 °F 44.6 °F 82% 30.33 in 7.0 mi NNW 5.8 mph - N/A   Scattered Clouds
8:41 AM 57.2 °F 48.2 °F 72% 30.33 in 8.0 mi NNW 8.1 mph - N/A   Scattered Clouds
9:44 AM 62.6 °F 44.6 °F 52% 30.33 in 9.0 mi NNW 11.5 mph - N/A   Scattered Clouds
9:55 AM 62 °F 42 °F 36% 29.91 in 3 mi NNW 2.2 mph - -   Haze
10:46 AM 66.2 °F 42.8 °F 43% 30.33 in 10.0 mi NW 8.1 mph - N/A   Scattered Clouds
11:43 AM 68.0 °F 41.0 °F 37% 30.33 in 11.0 mi North 9.2 mph - N/A   Scattered Clouds
12:42 PM 73.4 °F 44.6 °F 36% 30.31 in 11.0 mi East 4.6 mph - N/A   Scattered Clouds
12:50 PM 73 °F 40 °F 20% 29.86 in 6 mi North 2.2 mph - -   Haze
1:43 PM 71.6 °F 44.6 °F 38% 30.29 in 11.0 mi SSE 8.1 mph - N/A   Mostly Cloudy
2:41 PM 68.0 °F 44.6 °F 43% 30.27 in 9.0 mi ENE 8.1 mph - N/A   Mostly Cloudy
3:40 PM 70 °F 40 °F 23% 29.76 in 12 mi SE 2.2 mph - -   Overcast
3:42 PM 64.4 °F 50.0 °F 59% 30.26 in 9.0 mi SSE 3.5 mph - N/A   Overcast
4:40 PM 62.6 °F 51.8 °F 68% 30.25 in 7.0 mi SSW 10.4 mph - N/A Rain Light Rain
5:45 PM 60.8 °F 55.4 °F 82% 30.25 in 7.0 mi West 8.1 mph - N/A   Overcast
5:59 PM 59.0 °F 55.4 °F 88% 30.25 in 7.0 mi West 9.2 mph - N/A Rain Light Rain
6:40 PM 62 °F 52 °F 62% 29.73 in 12 mi North 2.2 mph - -   Partly Cloudy
6:45 PM 59.0 °F 55.4 °F 88% 30.26 in 7.0 mi West 4.6 mph - N/A Rain Light Rain
7:41 PM 59.0 °F 55.4 °F 88% 30.29 in 4.0 mi ESE 3.5 mph - N/A Rain Rain
8:03 PM 57.2 °F 55.4 °F 94% 30.30 in 0.2 mi ESE 2.3 mph - N/A Rain Rain
8:23 PM 57.2 °F 55.4 °F 94% 30.30 in 1.0 mi NNE 3.5 mph - N/A Rain Light Rain
8:42 PM 55.4 °F 53.6 °F 94% 30.31 in 5.0 mi North 5.8 mph - N/A Rain Light Rain
9:43 PM 55.4 °F 53.6 °F 94% 30.33 in 4.0 mi WNW 8.1 mph - N/A Rain Light Rain
9:55 PM 59 °F 55 °F 82% 29.78 in 3 mi Calm Calm - -   Partly Cloudy
10:41 PM 55.4 °F 53.6 °F 94% 30.34 in 5.0 mi NNW 5.8 mph - N/A Rain Light Rain